Location: El Corozo
(10.5833°N, 66.9667°W)
Time: 04:11:35
(UTC+00:00)

Aureole 1 Rocket - Pass Details

Date: 23 May 2024
Orbit: 374 x 1193 km, 73.9° (Epoch: 20 May)

Event Time Altitude Azimuth Distance (km) Brightness Sun altitude
Exits shadow 08:36:25 11° 163° (SSE) 1,648 5.1 -20.7°
Maximum altitude 08:39:24 28° 105° (ESE) 895 4.4 -20.0°
Drops below altitude 10° 08:42:13 10° 44° (NE) 1,492 6.1 -19.4°
Sets 08:44:16 0° 31° (NNE) 2,290 7.0 -19.0°
